Weather History for Grinnell, IA

Change the Weather History Date:

Wednesday, January 22, 2014

  Actual Average (KMIW) Record (KMIW)
Temperature  
Mean Temperature 6 °F 19 °F  
Max Temperature 17 °F 28 °F 57 °F (2002)
Min Temperature -5 °F 10 °F -6 °F (2008)
Degree Days  
Heating Degree Days 59 46  
Month to date heating degree days 1012  
Since 1 July heating degree days 3824  
Cooling Degree Days 0 0  
Month to date cooling degree days 0  
Year to date cooling degree days 0  
Moisture  
Dew Point 2 °F    
Average Humidity 76    
Maximum Humidity 83    
Minimum Humidity 66    
Precipitation  
Precipitation 0.00 in 0.03 in 0.05 in (1998)
Month to date precipitation 0.53  
Sea Level Pressure  
Sea Level Pressure 30.12 in    
Wind  
Wind Speed 16 mph (WNW)    
Max Wind Speed 29 mph    
Max Gust Speed 37 mph    
Visibility 9 miles    
Events Snow    
T = Trace of Precipitation, MM = Missing Value Source: NWS Daily Summary

Daily Weather History Graph

Daily Weather History Graph

Search for Another Location

Airport:

Trip Planner

Search our weather history database for the weather conditions in past years. The results will help you decide how hot, cold, wet, or windy it might be!

Date:

Astronomy

Jan. 22, 2014 Rise Set
Actual Time 7:31 AM CST 5:13 PM CST
Civil Twilight 7:01 AM CST 5:44 PM CST
Nautical Twilight 6:27 AM CST 6:18 PM CST
Astronomical Twilight 5:54 AM CST 6:51 PM CST
Moon 11:53 PM CST (1/22) 10:27 AM CST (1/22)
Length of Visible Light 10h 42m
Length of Day
9h 42m
Waning Gibbous, 65% of the Moon is Illuminated
Jan 22
Waning Gibbous
Jan 23
Last Quarter
Jan 30
New
Feb 6
First Quarter
Feb 14
Full

Hourly Weather History & Observations

Time (CST) Temp. Windchill Dew Point Humidity Pressure Visibility Wind Dir Wind Speed Gust Speed Precip Events Conditions
12:15 AM 9.9 °F -4.0 °F 3.9 °F 77% 30.06 in 10.0 mi SSE 10.4 mph - N/A   Overcast
12:35 AM 10.0 °F -3.7 °F 4.1 °F 77% 30.04 in 10.0 mi SSE 10.4 mph - N/A   Overcast
12:55 AM 10.2 °F -3.5 °F 4.6 °F 78% 30.04 in 10.0 mi South 10.4 mph - N/A   Overcast
1:15 AM 10.4 °F -4.1 °F 4.6 °F 78% 30.02 in 10.0 mi South 11.5 mph - N/A   Overcast
1:35 AM 10.6 °F -3.1 °F 5.0 °F 78% 30.01 in 10.0 mi South 10.4 mph - N/A   Overcast
1:55 AM 10.9 °F -1.8 °F 5.0 °F 77% 30.01 in 10.0 mi South 9.2 mph - N/A   Overcast
2:15 AM 11.1 °F -1.6 °F 5.2 °F 77% 30.00 in 10.0 mi South 9.2 mph - N/A   Overcast
2:35 AM 11.3 °F -2.2 °F 5.7 °F 78% 29.99 in 10.0 mi South 10.4 mph - N/A   Overcast
2:55 AM 11.5 °F -1.1 °F 6.3 °F 80% 29.99 in 10.0 mi South 9.2 mph - N/A   Overcast
3:15 AM 11.8 °F -0.7 °F 6.4 °F 79% 29.98 in 10.0 mi SSW 9.2 mph - N/A   Overcast
3:35 AM 12.2 °F -1.0 °F 6.8 °F 79% 29.97 in 10.0 mi South 10.4 mph - N/A Snow Light Snow
3:55 AM 12.2 °F 0.7 °F 7.5 °F 82% 29.97 in 10.0 mi SSW 8.1 mph - N/A   Overcast
4:15 AM 12.9 °F 0.7 °F 7.7 °F 80% 29.96 in 10.0 mi SSW 9.2 mph - N/A   Overcast
4:35 AM 13.1 °F 0.9 °F 7.9 °F 80% 29.96 in 10.0 mi SSW 9.2 mph - N/A   Overcast
4:55 AM 13.3 °F 2.0 °F 8.4 °F 81% 29.95 in 10.0 mi SW 8.1 mph - N/A   Overcast
5:15 AM 13.6 °F 2.5 °F 9.1 °F 82% 29.96 in 10.0 mi WSW 8.1 mph - N/A   Overcast
5:35 AM 14.9 °F 3.1 °F 8.6 °F 76% 29.96 in 10.0 mi West 9.2 mph - N/A   Overcast
5:55 AM 15.6 °F 1.2 °F 9.1 °F 76% 29.96 in 10.0 mi West 13.8 mph 19.6 mph N/A Snow Light Snow
6:15 AM 16.0 °F 0.6 °F 10.9 °F 81% 29.97 in 10.0 mi WNW 16.1 mph 20.7 mph N/A Snow Light Snow
6:35 AM 15.4 °F -4.5 °F 9.3 °F 77% 29.98 in 3.0 mi NW 28.8 mph 36.8 mph N/A Snow Light Snow
6:55 AM 15.1 °F -4.0 °F 9.3 °F 78% 29.98 in 5.0 mi NW 25.3 mph 33.4 mph N/A   Haze
7:15 AM 14.7 °F -4.5 °F 9.1 °F 79% 29.99 in 7.0 mi NW 25.3 mph 28.8 mph N/A Snow Light Snow
7:35 AM 13.3 °F -4.8 °F 7.3 °F 77% 30.00 in 10.0 mi NW 20.7 mph 29.9 mph N/A   Mostly Cloudy
7:55 AM 12.0 °F -6.0 °F 5.5 °F 75% 30.01 in 10.0 mi NW 19.6 mph 29.9 mph N/A   Scattered Clouds
8:15 AM 11.7 °F -5.0 °F 5.7 °F 77% 30.02 in 10.0 mi NW 16.1 mph - N/A   Clear
8:35 AM 12.2 °F -3.1 °F 6.3 °F 77% 30.03 in 10.0 mi WNW 13.8 mph - N/A   Clear
8:55 AM 12.0 °F -6.5 °F 5.0 °F 73% 30.03 in 10.0 mi NW 20.7 mph 27.6 mph N/A   Clear
9:15 AM 11.3 °F -5.5 °F 5.0 °F 76% 30.03 in 10.0 mi WNW 16.1 mph - N/A   Clear
9:35 AM 11.7 °F -6.5 °F 5.2 °F 75% 30.03 in 10.0 mi WNW 19.6 mph - N/A   Clear
9:55 AM 11.3 °F -6.5 °F 5.2 °F 76% 30.04 in 10.0 mi NW 18.4 mph 28.8 mph N/A   Mostly Cloudy
10:15 AM 12.4 °F -6.4 °F 6.1 °F 76% 30.06 in 10.0 mi NW 21.9 mph 27.6 mph N/A   Overcast
10:35 AM 12.7 °F -4.6 °F 6.8 °F 77% 30.05 in 10.0 mi WNW 18.4 mph 27.6 mph N/A   Overcast
10:55 AM 13.5 °F -2.7 °F 7.2 °F 76% 30.05 in 10.0 mi WNW 16.1 mph 21.9 mph N/A   Overcast
11:15 AM 14.0 °F -3.4 °F 7.5 °F 75% 30.06 in 10.0 mi WNW 19.6 mph 26.5 mph N/A   Mostly Cloudy
11:35 AM 14.4 °F -3.0 °F 7.7 °F 75% 30.06 in 10.0 mi WNW 19.6 mph 26.5 mph N/A   Mostly Cloudy
11:55 AM 14.7 °F -2.0 °F 8.4 °F 76% 30.06 in 7.0 mi WNW 18.4 mph 24.2 mph N/A   Overcast
12:15 PM 14.9 °F -3.9 °F 8.4 °F 76% 30.06 in 10.0 mi WNW 24.2 mph 29.9 mph N/A   Overcast
12:35 PM 15.4 °F -2.0 °F 9.0 °F 76% 30.05 in 4.0 mi WNW 20.7 mph - N/A   Haze
12:55 PM 15.8 °F -1.1 °F 9.3 °F 76% 30.05 in 7.0 mi WNW 19.6 mph 27.6 mph N/A   Overcast
1:15 PM 16.3 °F -2.7 °F 9.5 °F 74% 30.04 in 7.0 mi WNW 26.5 mph 31.1 mph N/A   Overcast
1:35 PM 17.1 °F -1.7 °F 10.2 °F 75% 30.04 in 5.0 mi WNW 26.5 mph 32.2 mph N/A   Haze
1:55 PM 16.5 °F -0.6 °F 9.3 °F 73% 30.04 in 7.0 mi WNW 20.7 mph 31.1 mph N/A   Overcast
2:15 PM 16.5 °F -2.1 °F 7.2 °F 67% 30.05 in 5.0 mi WNW 25.3 mph 35.7 mph N/A   Haze
2:35 PM 15.1 °F -5.0 °F 5.5 °F 66% 30.06 in 7.0 mi NW 28.8 mph 35.7 mph N/A   Overcast
2:55 PM 14.9 °F -4.3 °F 8.1 °F 74% 30.08 in 10.0 mi NW 25.3 mph 31.1 mph N/A   Mostly Cloudy
3:15 PM 13.1 °F -7.7 °F 5.0 °F 70% 30.09 in 10.0 mi NW 28.8 mph 34.5 mph N/A   Scattered Clouds
3:35 PM 13.1 °F -7.4 °F 6.1 °F 74% 30.11 in 1.8 mi WNW 27.6 mph 34.5 mph N/A Snow Light Snow
3:55 PM 9.9 °F -12.1 °F 5.7 °F 83% 30.13 in 0.2 mi NW 28.8 mph 33.4 mph N/A Snow Snow
4:15 PM 7.9 °F -13.7 °F 2.5 °F 79% 30.15 in 3.0 mi NW 25.3 mph 35.7 mph N/A   Haze
4:35 PM 7.3 °F -14.0 °F -0.0 °F 72% 30.17 in 10.0 mi NW 24.2 mph 34.5 mph N/A   Mostly Cloudy
4:55 PM 5.0 °F -18.7 °F -3.3 °F 69% 30.18 in 7.0 mi WNW 28.8 mph 35.7 mph N/A   Scattered Clouds
5:15 PM 3.9 °F -19.8 °F -3.8 °F 70% 30.19 in 10.0 mi NW 27.6 mph 34.5 mph N/A   Scattered Clouds
5:35 PM 3.0 °F -19.7 °F -2.9 °F 76% 30.21 in 7.0 mi NW 24.2 mph 32.2 mph N/A   Scattered Clouds
5:55 PM 2.3 °F -21.5 °F -4.2 °F 74% 30.22 in 10.0 mi NW 26.5 mph 33.4 mph N/A   Scattered Clouds
6:15 PM 2.1 °F -21.4 °F -2.7 °F 80% 30.23 in 1.8 mi NW 25.3 mph 33.4 mph N/A Snow Light Snow
6:35 PM 1.2 °F -22.6 °F -3.6 °F 80% 30.26 in 2.0 mi NW 25.3 mph 29.9 mph N/A   Haze
6:55 PM -0.2 °F -24.0 °F -7.4 °F 72% 30.27 in 5.0 mi NW 24.2 mph 34.5 mph N/A   Haze
7:15 PM -0.6 °F -25.0 °F -7.6 °F 72% 30.29 in 7.0 mi NW 25.3 mph 33.4 mph N/A   Scattered Clouds
7:35 PM -0.9 °F -25.0 °F -6.9 °F 76% 30.30 in 7.0 mi NW 24.2 mph 31.1 mph N/A   Mostly Cloudy
7:55 PM -1.5 °F -24.3 °F -7.8 °F 75% 30.31 in 10.0 mi NW 20.7 mph 28.8 mph N/A   Mostly Cloudy
8:15 PM -2.0 °F -26.0 °F -8.5 °F 74% 30.33 in 10.0 mi NW 23.0 mph 27.6 mph N/A   Overcast
8:35 PM -2.4 °F -26.0 °F -9.9 °F 70% 30.33 in 10.0 mi NW 21.9 mph 35.7 mph N/A   Mostly Cloudy
8:55 PM -3.3 °F -27.1 °F -9.0 °F 76% 30.34 in 10.0 mi NW 21.9 mph - N/A   Clear
9:15 PM -3.3 °F -28.1 °F -9.9 °F 73% 30.35 in 10.0 mi NW 24.2 mph 28.8 mph N/A   Clear
9:35 PM -4.0 °F -27.0 °F -10.5 °F 74% 30.36 in 10.0 mi NW 19.6 mph 26.5 mph N/A   Clear
9:55 PM -4.0 °F -28.1 °F -10.7 °F 73% 30.38 in 10.0 mi NW 21.9 mph - N/A   Clear
10:15 PM -4.2 °F -26.7 °F -10.8 °F 73% 30.39 in 10.0 mi NW 18.4 mph 25.3 mph N/A   Clear
10:35 PM -4.4 °F -24.9 °F -11.0 °F 73% 30.41 in 10.0 mi NW 15.0 mph 21.9 mph N/A   Clear
10:55 PM -4.5 °F -28.3 °F -10.7 °F 75% 30.41 in 10.0 mi NW 20.7 mph 25.3 mph N/A   Clear
11:15 PM -4.9 °F -27.6 °F -11.2 °F 74% 30.42 in 10.0 mi NW 18.4 mph - N/A   Clear
11:35 PM -5.1 °F -27.8 °F -11.6 °F 74% 30.43 in 10.0 mi NW 18.4 mph 23.0 mph N/A   Clear
11:55 PM -5.4 °F -27.7 °F -11.4 °F 76% 30.44 in 10.0 mi NW 17.3 mph - N/A   Clear